This demonstration page uses our WeatherBlox Daily Observations layout. Learn more.

Left ArrowRight Arrow

Hourly Observations for October 18, 2022

Temp ( °F °C ) Dew Point ( °F °C ) Humidity (%) Winds ( mph kmh ) Pressure ( in mb ) Visibility ( mi km ) Precip ( " mm )
12:51 am 00:51 Clear 53 11.7 49 9.4 86 86 E 6 9 30.07 1018 10 16 0.00 0.00
1:51 am 01:51 Clear 52 11.1 48 8.9 86 86 E 5 7 30.08 1019 10 16 0.00 0.00
2:51 am 02:51 Clear 52 11.1 48 8.9 86 86 E 7 11 30.08 1019 10 16 0.00 0.00
3:51 am 03:51 Clear 51 10.6 48 8.9 89 89 E 6 9 30.09 1019 10 16 0.00 0.00
4:51 am 04:51 Clear 52 11.1 48 8.9 86 86 ESE 8 13 30.10 1019 10 16 0.00 0.00
5:51 am 05:51 Mostly Clear 51 10.6 48 8.9 89 89 SE 7 11 30.12 1020 10 16 0.00 0.00
6:51 am 06:51 Mostly Sunny 52 11.1 48 8.9 86 86 SE 8 13 30.15 1021 10 16 0.00 0.00
7:51 am 07:51 Partly Cloudy 56 13.3 49 9.4 77 77 ESE 8 13 30.17 1022 10 16 0.00 0.00
8:51 am 08:51 Partly Cloudy 59 15 49 9.4 69 69 SSE 9 15 30.17 1022 10 16 0.00 0.00
9:51 am 09:51 Sunny 62 16.7 49 9.4 62 62 SSE 6 9 30.16 1021 10 16 0.00 0.00
10:51 am 10:51 Mostly Sunny 67 19.4 49 9.4 52 52 SSE 13 20 30.14 1021 10 16 0.00 0.00
11:51 am 11:51 Mostly Sunny 69 20.6 47 8.3 45 45 SE 10 17 30.11 1020 10 16 0.00 0.00
12:51 pm 12:51 Mostly Cloudy 73 22.8 47 8.3 39 39 SE 15 24 30.08 1019 10 16 0.00 0.00
1:51 pm 13:51 Mostly Sunny 72 22.2 45 7.2 38 38 SE 8 13 30.06 1018 10 16 0.00 0.00
2:51 pm 14:51 Mostly Sunny 74 23.3 44 6.7 34 34 SSE 15 24 30.04 1017 10 16 0.00 0.00
3:51 pm 15:51 Sunny 75 23.9 45 7.2 34 34 ESE 14 22 30.04 1017 10 16 0.00 0.00
4:51 pm 16:51 Sunny 73 22.8 44 6.7 35 35 SE 13 20 30.04 1017 10 16 0.00 0.00
5:51 pm 17:51 Clear 68 20 45 7.2 43 43 SE 13 20 30.07 1018 10 16 0.00 0.00
6:51 pm 18:51 Clear 66 18.9 45 7.2 47 47 ESE 8 13 30.10 1019 10 16 0.00 0.00
7:51 pm 19:51 Clear 63 17.2 45 7.2 52 52 E 7 11 30.12 1020 10 16 0.00 0.00
8:51 pm 20:51 Clear 62 16.7 45 7.2 53 53 E 9 15 30.13 1020 10 16 0.00 0.00
9:51 pm 21:51 Clear 59 15 45 7.2 60 60 SSE 8 13 30.16 1021 10 16 0.00 0.00
10:51 pm 22:51 Clear 59 15 45 7.2 60 60 SE 7 11 30.15 1021 10 16 0.00 0.00
11:51 pm 23:51 Clear 60 15.6 44 6.7 55 55 E 10 17 30.14 1021 10 16 0.00 0.00

Powered by AerisWeather